Dewpoint
12 11 12 15 15 13 3 13 9 -0 8 10 10 10 9 8 5 4 5 5 6 11 12 13 19 20 19 21 22 23 25 27 28 29 29 30 30 32 33 35 36 37 38 38
7 7 10 6 12 13 12 6 5 1 8 7 5 4 3 4 3 2 2 1 1 3 8 9 12 19 18 19 21 23 24 26 28 29 31 31 31 33 33 35 37 37 38 38
2 0 8 5 5 5 3 4 1 -0 8 8 7 -4 -2 3 6 5 4 3 2 1 2 5 7 15 17 18 20 22 24 26 28 30 33 33 33 33 33 35 36 38 38 38
9 8 9 9 4 4 0 3 2 4 0 -4 7 -12 0 0 -1 2 5 11 6 5 2 2 5 9 15 17 19 21 24 26 28 31 31 30 30 28 32 34 36 37 38 37
6 9 8 8 6 5 4 11 8 10 5 6 6 4 -1 4 1 1 3 6 10 10 6 3 3 5 12 16 19 21 24 25 27 30 30 30 29 29 33 34 35 36 37 37
10 13 11 8 13 11 13 14 18 17 10 5 1 -5 -22 -12 -7 3 7 8 12 12 9 6 4 5 10 16 19 21 24 25 27 29 30 29 28 30 33 34 34 35 35 36
11 11 12 13 9 13 12 8 8 1 2 3 7 0 -10 -1 1 9 9 9 10 13 12 10 5 7 11 17 19 21 25 25 28 29 30 29 28 30 31 33 34 34 34 33
6 4 12 13 7 8 12 8 6 -5 5 4 8 5 4 10 13 14 13 13 12 12 11 13 9 9 12 17 19 21 25 25 28 29 30 30 29 30 32 33 33 33 33 32
10 5 11 12 11 9 10 13 13 12 9 10 10 11 9 13 12 13 11 7 10 12 13 13 14 12 14 17 19 20 24 26 28 29 30 30 30 32 32 32 33 33 33 32
13 11 14 12 11 10 10 13 9 13 -5 -1 0 5 0 0 5 10 10 9 8 11 12 14 14 16 17 18 19 21 22 24 28 30 30 30 31 32 32 33 32 32 33 32
22 18 14 14 11 9 10 12 14 14 14 4 4 3 12 7 7 10 11 10 10 10 11 13 15 16 17 21 21 22 23 26 29 30 31 31 31 32 33 33 33 32 32 32
22 25 13 11 12 15 12 10 14 9 5 16 15 4 12 13 12 13 12 12 13 12 12 12 14 16 18 21 24 25 26 26 28 30 30 31 32 32 32 32 32 32 32 32
25 25 16 17 16 13 11 11 14 16 17 11 8 0 11 15 20 18 13 14 14 15 13 13 15 15 17 18 21 25 27 27 29 30 31 31 31 32 32 32 32 32 32 32
29 28 24 20 18 18 15 14 15 18 13 4 8 2 9 11 12 14 16 14 14 15 13 13 13 15 16 17 18 20 25 28 30 30 30 30 31 31 32 32 32 32 32 31
33 26 28 25 24 18 20 16 16 15 11 9 3 4 6 6 10 11 13 13 13 13 15 15 14 16 16 17 17 19 20 26 29 29 30 30 31 31 32 32 31 31 31 31
30 26 27 27 29 29 24 20 19 13 11 9 8 7 9 9 10 10 11 13 15 16 14 15 17 18 18 19 18 18 19 23 28 28 29 30 31 31 31 31 31 31 30 30
27 25 25 22 24 24 20 23 23 19 15 11 9 9 11 10 12 21 24 25 25 26 27 25 23 18 18 20 20 20 20 22 27 27 29 30 31 31 31 30 30 30 30 29
26 24 25 22 22 16 22 27 27 24 24 24 22 22 20 21 23 22 21 21 22 24 26 26 27 27 27 24 22 22 23 24 26 27 28 30 31 30 30 30 30 29 29 29
28 25 21 19 19 22 20 21 22 23 21 19 19 19 19 20 23 21 20 20 21 22 23 23 24 25 28 26 26 24 23 25 26 26 27 29 30 30 30 29 29 28 27 23
27 28 22 21 17 13 19 20 20 22 18 19 18 17 17 18 19 17 20 20 20 20 21 22 21 23 25 26 26 26 25 26 26 27 28 29 30 30 29 29 29 25 25 28
15 21 19 19 17 15 19 20 18 18 14 19 19 18 17 16 18 20 20 18 19 19 19 20 19 20 21 22 24 26 27 26 27 27 27 28 29 29 29 29 27 26 26 24
5 10 12 14 14 10 20 16 13 18 22 20 18 18 17 17 17 18 18 18 17 18 17 18 16 18 19 20 22 24 26 27 27 26 26 27 28 29 29 28 26 27 26 26
11 15 10 13 14 21 21 19 22 23 22 20 18 15 13 12 11 11 15 17 16 16 15 15 13 16 16 17 19 22 23 27 26 25 25 25 27 29 29 28 27 26 27 28
19 22 15 10 19 18 19 18 18 19 17 14 13 11 10 9 9 10 12 13 12 12 12 11 11 12 12 13 16 18 20 24 25 24 23 22 24 25 27 28 28 28 28 28
12 17 11 14 18 17 14 12 11 11 9 6 5 5 4 4 4 7 8 7 5 4 8 8 7 6 7 9 12 15 17 19 22 25 23 21 23 25 26 28 28 28 29 29
11 7 11 8 9 12 10 9 5 5 4 3 1 0 1 2 3 3 2 1 1 1 2 3 2 2 3 4 9 12 13 17 18 22 25 23 23 22 25 26 25 30 31 31
Lifted_Index
7 6 5 5 6 6 6 5 5 5 6 6 6 6 5 4 5 5 5 5 6 7 8 9 9 9 10 10 11 12 14 14 15 15 14 14 14 15 15 15 15 15 15 15
7 6 6 6 6 6 6 5 4 4 5 6 6 6 5 4 4 4 4 4 5 5 6 8 9 9 10 10 11 12 13 14 14 15 15 14 15 15 15 15 15 15 15 16
7 7 7 7 6 6 5 5 4 4 5 5 5 5 4 3 3 3 3 3 3 4 5 6 8 9 10 10 11 12 13 14 14 15 15 15 14 15 15 14 14 15 15 15
7 8 7 6 6 6 5 5 5 5 4 4 4 4 3 3 2 2 2 3 3 4 4 6 7 8 9 10 11 12 13 14 14 15 15 14 14 14 14 14 14 14 15 15
8 8 7 7 6 6 6 6 6 5 4 3 3 3 3 3 2 2 2 3 3 4 5 6 7 8 9 10 11 12 13 14 14 15 15 14 14 14 14 14 14 14 14 15
7 8 8 8 7 7 7 7 5 4 3 3 3 3 3 3 3 2 2 3 3 4 5 6 7 8 9 10 11 12 12 13 14 15 15 14 14 14 14 14 14 14 14 14
5 6 8 8 8 7 7 6 3 2 2 2 3 3 3 4 4 3 3 3 4 5 5 6 6 7 8 9 10 11 12 12 13 14 14 14 14 14 14 14 14 14 14 14
3 4 6 7 7 6 6 5 3 2 1 2 3 3 4 5 5 4 4 4 5 5 6 6 7 7 8 9 10 11 11 12 13 13 14 14 14 14 14 14 14 14 14 13
3 4 5 6 7 6 6 5 4 3 2 2 2 3 4 5 5 4 4 5 5 6 6 7 7 8 9 10 10 11 11 12 12 13 13 13 13 14 14 14 14 14 14 14
3 3 4 5 6 6 6 5 4 4 2 1 1 2 4 5 5 5 4 5 6 6 7 7 8 8 9 10 10 11 11 11 12 12 12 13 13 13 14 14 13 14 14 14
3 3 3 4 5 5 5 5 4 3 2 1 1 2 4 5 5 5 5 5 5 6 7 7 8 8 9 10 10 10 10 10 10 11 11 12 12 13 13 13 13 13 13 14
3 3 3 3 5 5 5 4 4 3 3 2 2 3 5 6 5 5 5 5 5 6 6 7 7 8 8 8 9 9 8 8 9 9 10 10 11 12 12 12 13 13 13 13
3 3 2 3 4 5 5 5 4 4 3 2 2 3 5 6 5 5 5 5 5 5 5 6 7 7 7 7 7 7 7 7 8 8 9 9 9 10 11 11 12 13 13 13
2 2 2 2 3 3 3 4 4 4 3 3 3 4 5 6 5 5 5 5 5 5 5 6 6 7 7 7 7 7 7 7 8 8 8 8 8 8 10 11 12 13 13 13
2 2 2 2 3 2 2 3 3 3 3 3 3 4 5 6 6 5 5 4 4 5 5 5 6 7 7 7 7 7 7 8 8 8 8 8 8 8 9 10 12 12 13 13
1 1 2 3 3 3 2 3 3 3 3 4 4 4 5 6 6 5 5 5 5 5 5 5 6 7 7 7 7 8 8 8 8 9 8 8 8 9 9 10 11 12 12 13
1 1 2 3 3 3 2 3 3 3 3 3 3 4 5 5 5 5 5 5 5 5 5 5 6 6 7 7 7 8 8 8 9 9 9 9 8 9 9 10 11 11 11 12
2 1 1 2 2 2 2 3 3 3 3 3 3 3 4 4 5 5 6 6 5 5 5 6 6 7 7 7 8 8 8 8 8 9 9 9 8 8 9 9 10 10 11 11
2 2 2 2 1 1 2 3 3 3 3 3 3 3 3 4 4 5 6 7 7 7 7 7 8 8 8 8 8 7 7 7 7 7 8 8 8 8 8 8 9 10 11 11
2 2 1 1 1 1 2 3 3 3 3 4 4 4 3 3 4 5 7 8 8 9 9 9 9 9 9 8 8 7 7 6 6 7 7 7 7 8 8 8 9 10 11 11
2 1 1 1 1 2 2 2 2 3 4 5 6 5 5 5 6 7 9 10 10 10 10 10 9 9 9 9 8 7 7 6 7 7 7 7 7 8 8 9 9 10 10 10
3 2 2 2 2 3 4 4 4 5 7 7 8 8 7 8 9 10 11 11 11 11 11 11 10 10 10 10 9 8 7 7 7 7 7 7 8 8 8 9 9 10 10 9
4 3 3 3 4 5 6 6 7 8 8 9 9 10 10 10 11 12 12 12 13 13 13 13 12 11 11 11 10 10 9 9 9 8 7 7 8 8 8 9 9 9 8 8
4 4 4 4 5 6 7 8 8 9 9 10 10 11 11 11 12 12 13 13 14 14 14 14 13 12 12 11 11 11 11 10 9 8 8 8 8 9 9 9 8 8 8 8
3 3 3 4 5 5 6 7 8 9 9 10 10 11 11 11 12 12 13 13 14 15 15 14 13 13 12 11 11 11 11 10 9 8 8 9 9 9 9 8 8 8 8 8
2 2 3 4 4 5 5 6 8 9 9 10 10 10 11 11 11 12 12 13 14 14 15 14 14 13 12 12 11 11 11 10 9 8 9 9 9 9 9 8 8 8 8 8